This demonstration page uses our WeatherBlox Daily Observations layout. Learn more.

41.55636, -103.73856

Hourly Observations for December 9, 2019

Temp ( °F °C ) Dew Point ( °F °C ) Humidity (%) Winds ( mph kmh ) Pressure ( in mb ) Visibility ( mi km ) Precip ( " mm )
12:58 am 00:58 Mostly Clear 41 5 30 -0.9 66 66 Calm 29.67 1005 10 16.0934 0 0
1:58 am 01:58 Mostly Cloudy 42 5.4 29 -1.5 61 61 WNW 22 35 29.67 1005 10 16.0934 0 0
2:58 am 02:58 Mostly Cloudy 42 5.8 28 -2.1 57 57 WNW 16 26 29.67 1005 10 16.0934 0 0
3:58 am 03:58 Mostly Cloudy 34 1.1 28 -2.1 79 79 NNW 21 33 29.76 1008 10 16.0934 0 0
4:58 am 04:58 Mostly Cloudy 31 -0.4 25 -4.1 76 76 NNW 24 39 29.82 1010 10 16.0934 0 0
5:58 am 05:58 Mostly Cloudy with Scattered Snow Showers 29 -1.5 23 -5 77 77 NNW 24 39 29.86 1011 10 16.0934 0 0
6:58 am 06:58 Mostly Cloudy with Scattered Snow Showers 25 -3.7 20 -6.6 81 81 NNW 23 37 29.91 1013 10 16.0934 0 0
7:58 am 07:58 Cloudy with Light Snow 23 -4.9 21 -6.2 91 91 NW 17 28 29.93 1014 3 4.82802 0 0
8:58 am 08:58 Mostly Clear 21 -6.1 18 -8 87 87 NW 8 13 29.93 1014 10 16.0934 0 0
9:58 am 09:58 Mostly Cloudy 19 -7.1 15 -9.6 83 83 NW 10 17 29.98 1015 10 16.0934 0 0
10:58 am 10:58 Mostly Cloudy 18 -7.6 13 -10.5 80 80 NW 9 15 30.01 1016 10 16.0934 0 0
11:58 am 11:58 Partly Cloudy 15 -9.3 11 -11.4 85 85 NNW 7 11 30.01 1016 10 16.0934 0 0
12:58 pm 12:58 Clear 15 -9.3 12 -11.1 87 87 WNW 9 15 30.04 1017 10 16.0934 0 0
1:58 pm 13:58 Mostly Cloudy 16 -8.7 12 -11 84 84 WNW 12 19 30.05 1018 10 16.0934 0 0
2:58 pm 14:58 Partly Cloudy 16 -8.8 11 -11.5 81 81 WNW 8 13 30.06 1018 10 16.0934 0 0
3:58 pm 15:58 Mostly Cloudy 21 -6.3 12 -11 70 70 WNW 13 20 30.09 1019 10 16.0934 0 0
4:58 pm 16:58 Sunny 24 -4.6 14 -10.1 66 66 WNW 12 19 30.11 1020 10 16.0934 0 0
5:58 pm 17:58 Sunny 28 -2.5 15 -9.5 59 59 NW 15 24 30.09 1019 10 16.0934 0 0
6:59 pm 18:59 Mostly Sunny 31 -0.8 14 -10.1 50 50 NNW 22 35 30.06 1018 10 16.0934 0 0
7:58 pm 19:58 Mostly Cloudy 30 -1 12 -11.2 46 46 NNW 20 31 30.08 1019 10 16.0934 0 0
8:58 pm 20:58 Mostly Sunny 32 -0.2 14 -9.9 48 48 NNW 15 24 30.07 1018 10 16.0934 0 0
9:58 pm 21:58 Sunny 32 0 14 -9.8 48 48 NW 12 19 30.08 1019 10 16.0934 0 0
10:58 pm 22:58 Sunny 32 -0.2 17 -8.4 54 54 WNW 7 11 30.09 1019 10 16.0934 0 0
11:58 pm 23:58 Partly Cloudy 26 -3.5 18 -7.9 72 72 WSW 6 9 30.14 1021 10 16.0934 0 0

Powered by AerisWeather